Regional Weather Roundup
Issued by NWS Newport/Morehead, NC

Current Version | Previous Version | Graphics & Text | Print | Product List | Glossary On
Versions: 1 2 3 4 5 6 7 8 9 10 11 12 13 14 15 16 17 18 19 20 21 22 23 24 25 26 27 28 29 30 31 32 33 34 35 36 37 38 39 40 41 42 43 44 45 46 47 48 49 50
000 ASUS42 KMHX 041425 RWRMHX WEATHER ROUNDUP FOR EASTERN NORTH CAROLINA NATIONAL WEATHER SERVICE NEWPORT/MOREHEAD CITY NC 1000 AM EDT SAT JUL 04 2015 NOTE: "FAIR" INDICATES FEW OR NO CLOUDS BELOW 12,000 FEET WITH NO SIGNIFICANT WEATHER AND/OR OBSTRUCTIONS TO VISIBILITY NCZ015>017-031-032-045>047-102-103-041500- NORTH COAST CITY SKY/WX TMP DP RH WIND PRES REMARKS EDENTON N/A 81 70 69 W13G20 29.94S ELIZABETH CITY PTSUNNY 80 72 76 W15 29.93S KITTY HAWK SUNNY 82 71 71 W10G20 29.92S MANTEO SUNNY 81 70 70 W15G23 29.94S $$ NCZ045>047-081-094-103-104-041500- CENTRAL COAST CITY SKY/WX TMP DP RH WIND PRES REMARKS FRISCO MOSUNNY 80 72 76 SW12 29.98R SWANQUARTER N/A 82 N/A N/A W15 29.94R $$ NCZ095-097-098-100-101-041500- SOUTHERN COAST CITY SKY/WX TMP DP RH WIND PRES REMARKS BEAUFORT SUNNY 83 73 72 SW22G28 30.00R CEDAR ISLAND N/A 86 N/A N/A SW10G24 30.00S JACKSONVILLE SUNNY 81 67 62 W14G26 30.00 PINEY ISLAND SUNNY N/A N/A N/A SW21G29 29.98S WILMINGTON MOSUNNY 83 67 58 W23G30 30.03R $$ NCZ011>013-027>030-043-044-078>080-089-090>093-098-041500- COASTAL PLAIN CITY SKY/WX TMP DP RH WIND PRES REMARKS AHOSKIE PTSUNNY N/A N/A N/A CALM 29.94S CLINTON SUNNY 81 71 73 SW9 29.99F ELIZABETHTOWN MOSUNNY 80 68 66 SW10 30.01S GOLDSBORO SUNNY 83 72 69 SW14G22 29.96R GREENVILLE MOSUNNY 81 72 74 SW12G21 29.98S HAVELOCK SUNNY 85 69 58 SW20G32 30.00R KENANSVILLE MOSUNNY 80 68 65 SW10G20 30.00S KINSTON SUNNY 84 70 61 SW10G21 29.99R NEW BERN SUNNY 84 71 65 W15G23 29.99R RICHLANDS SUNNY 84 66 54 SW17 30.00S ROCKY MOUNT MOSUNNY 82 70 66 W12G20 29.96R WASHINGTON SUNNY 82 72 71 W13 29.97R WHITEVILLE MOSUNNY 80 68 67 SW8 30.02F $$ AMZ130-135-150-152-154-156-158-170-250-252-270-ANZ085-086-088-633-658-670-041500- MARINE OBSERVATIONS STATION/POSITION TIME TEMP WIND PRES WAVE SWELL AIR SEA DIR/SP/G HT/PER HT/PER (UTC) (F) (DEG/KT/KT) (MB) (FT/S) (FT/S) CHESAPEAKE LIGHT 1400 76 270/ 12/ 13 1012.7 64 E VA BEACH 1350 77 76 250/ 19/ 25 1011.9 7/ 8 2/ 9 DUCK 1400 79 65 250/ 23/ 27 N/A 2 E DUCK 1311 74 N/A 3/ 9 2/15 OREGON INLET 1400 80 79 240/ 17/ 19 1013.7 13E OREGON INLT 1400 69 N/A 4/ 8 HATTERAS CG 1400 81 76 220/ 7/ 13 1014.7 DIAMOND BUOY 1350 80 82 240/ 21/ 23 1014.9 7/ 8 3/ 8 CAPE LOOKOUT 1400 82 240/ 18/ 25 1015.6 BEAUFORT LAB 1400 82 79 230/ 8/ 19 1015.3 30 SE NEW RVR IN 1308 81 79 250/ 19/ 25 1016.7 27 SE WRIGHTSVLE 1400 80 260/ 19/ 23 N/A 5 SE WRIGHTSVLE NOT AVBL 225 S CAPE HAT 1350 81 80 230/ 12/ 16 1021.1 5/ 6 3/ 6 41 SE CHARLESTON 1350 81 81 230/ 16/ 17 1017.9 5/ 6 2/ 9 $$

USA.gov is the U.S. government's official web portal to all federal, state and local government web resources and services.